Accueil
METAR-TAF:

METAR-TAF

Aéroports :

Fairford, Angleterre

latitude: 51-41N, longitude: 001-47W, altitude: 87 m

Observation

Le bulletin a été fait il y a 24 minutes, à 09:29 UTC
Vent 17 kt de ouest
Température 19°C
Humidité 78%
Pression 1010 hPa
Visibilité 10 km ou plus
Nuages fragmentés à une hauteur de 2100 ft
Ciel couvert à une hauteur de 2600 ft

METAR: EGVA 170929Z AUTO 26017KT 9999 BKN021 OVC026 19/15 A2983 RMK AO2 DZB20E29 SLP103 $

Heure: 10:53 (09:53 UTC)


TAF: absent

Observations et prévisions météorologiques de plus de 4000 aéroports (messages METAR et TAF).

Les stations disponibles sont représentées par des disques jaunes et rouges sur la carte.

Passer la souris dessus pour voir le nom de la station.

Cliquer dessus pour voir les observations et prévisions météorologiques.

Pour changer de carte: cliquez sur les boutons verts avec une croix noire pour zoomer, sur le bouton vert avec un tiret pour effectuer un zoom arrière, ou sur les flèches vertes pour les cartes adjacentes.


METAR-TAF: